星链-32123 (STARLINK-32123)

导读 | 星芒AI

STARLINK-32123 是 SpaceX 星链计划中的一颗低轨通信卫星,属于星链第三代组网卫星。该卫星旨在为全球用户提供高速、低延迟的互联网服务,特别是在偏远和网络覆盖不足的地区。它运行在约 550 公里的轨道高度,配备先进通信设备,支持高频段数据传输。作为星链系统的重要组成部分,STARLINK-32123 有助于提升网络容量和稳定性,推动全球互联网普及。

基本信息
目录编号:
60284
目录名称:
STARLINK-32123
国际标识:
2024-132G
轨道中心:
EARTH
卫星名称:
星链-32123 (STARLINK-32123)
卫星全名:
星链-32123 (STARLINK-32123)
卫星状态:
在轨 (已飞行463 天)
发射日期:
2024-07-28 UTC
国别 :
美国 (US)
星等 :
--
轨道信息
数据来源 国际轨道数据
星历时间: 2025-11-02T13:29:40+0800
1天前
查看轨道信息
半长轴: 6853.437km
偏心率: 0.0001739
轨道倾角: 53.162°
近地点辐角 74.885°
升交点赤经 271.842°
平近点角 285.234°
近地点: 474.11km
远地点: 476.494km
周期: 94.107分钟
每日圈数: 15.301717
详细信息
卫星平台:
Starlink v2.0 mini
运营商:
太空探索技术公司
运营商所在国:
美国
制造商(研发单位):
太空探索技术公司
制造商所在国:
美国
使用方式:
暂无
卫星简介
星链(Starlink)计划是由太空探索技术公司(SpaceX)提出的一个巨型低轨卫星互联网星座项目,计划在2019年至2024年间在太空搭建由约1.2万颗卫星组成的“星链”网络,其中1584颗将部署在地球上空550千米处的近地轨道,并从2020年开始工作。该卫星仍在工作。
2D轨道图
3D轨道图
轨道高度分析图
轨道倾角分析图
轨道综合分析图
查看轨道综合分析图